Location: Caltech
(34.1382°N, 118.1253°W)
Time: 20:55:43
(UTC-07:00)

Iridium 59 - Visible Passes

Search period start: 24 April 2014 00:00
Search period end: 04 May 2014 00:00
Orbit: 776 x 779 km, 86.4° (Epoch: 24 April)

Date Brightness Start Highest point End Pass type
(mag) Time Alt. Az. Time Alt. Az. Time Alt. Az.
24 Apr 7.7 01:18:00 10° N 01:18:51 15° NNE 01:18:51 15° NNE visible
25 Apr 7.9 00:45:02 10° NNE 00:45:25 12° NNE 00:45:25 12° NNE visible
25 Apr 7.7 02:25:42 10° NNW 02:25:53 11° NNW 02:25:53 11° NNW visible
26 Apr 7.6 01:51:37 10° NNW 01:52:28 15° NNW 01:52:28 15° NNW visible
27 Apr 7.6 01:18:00 10° N 01:19:04 16° N 01:19:04 16° N visible
28 Apr 7.7 00:44:45 10° NNE 00:45:39 15° NNE 00:45:39 15° NNE visible
29 Apr 7.8 00:12:03 10° NNE 00:12:15 11° NNE 00:12:15 11° NNE visible
29 Apr 7.6 01:52:01 10° NNW 01:52:43 14° NNW 01:52:43 14° NNW visible
30 Apr 7.5 01:18:08 10° N 01:19:19 17° N 01:19:19 17° N visible
01 May 7.5 00:44:39 10° N 00:45:56 18° N 00:45:56 18° N visible
02 May 7.6 00:11:35 10° NNE 00:12:32 15° NNE 00:12:32 15° NNE visible
02 May 7.7 01:52:36 10° NNW 01:53:01 12° NW 01:53:01 12° NW visible
03 May 7.5 01:18:24 10° NNW 01:19:38 17° NNW 01:19:38 17° NNW visible
